Weather History for KESC - October, 2011

Change the Weather History Date:

Thursday, October 20, 2011

  Actual Average Record
Temperature  
Mean Temperature 43 °F -  
Max Temperature 44 °F 51 °F 73 °F (2000)
Min Temperature 42 °F 36 °F 25 °F (1952)
Degree Days  
Heating Degree Days 22    
Moisture  
Dew Point 32 °F    
Average Humidity 64    
Maximum Humidity 70    
Minimum Humidity 57    
Precipitation  
Precipitation 0.00 in - - ()
Sea Level Pressure  
Sea Level Pressure 29.66 in    
Wind  
Wind Speed 16 mph (North)    
Max Wind Speed 22 mph    
Max Gust Speed 36 mph    
Visibility 10 miles    
Events      
Averages and records for this station are not official NWS values.
T = Trace of Precipitation, MM = Missing Value Source: NWS Daily Summary

Daily Weather History Graph

Daily Weather History Graph

Search for Another Location

Airport or City:

Trip Planner

Search our weather history database for the weather conditions in past years. The results will help you decide how hot, cold, wet, or windy it might be!

Date:

Astronomy

Oct. 20, 2011 Rise Set
Actual Time 8:11 AM EDT 6:54 PM EDT
Civil Twilight 7:41 AM EDT 7:24 PM EDT
Nautical Twilight 7:06 AM EDT 7:59 PM EDT
Astronomical Twilight 6:32 AM EDT 8:33 PM EDT
Moon 12:33 AM EDT (10/20) 3:22 PM EDT (10/20)
Length of Visible Light 11h 43m
Length of Day
10h 43m
Last Quarter, 44% of the Moon is Illuminated
Oct 20
Last Quarter
Oct 26
New
Nov 2
First Quarter
Nov 10
Full
Nov 18
Last Quarter

Hourly Weather History & Observations

Time (EDT) Temp. Windchill Dew Point Humidity Pressure Visibility Wind Dir Wind Speed Gust Speed Precip Events Conditions
12:15 AM 44.6 °F 38.1 °F 32.0 °F 61% 29.81 in 10.0 mi NNE 13.8 mph 24.2 mph N/A   Overcast
12:35 AM 44.6 °F 38.4 °F 30.2 °F 57% 29.80 in 10.0 mi NNE 12.7 mph 26.5 mph N/A   Overcast
12:55 AM 44.6 °F 38.8 °F 30.2 °F 57% 29.80 in 10.0 mi NNE 11.5 mph 29.9 mph N/A   Overcast
1:15 AM 44.6 °F 38.8 °F 30.2 °F 57% 29.79 in 10.0 mi NNE 11.5 mph 27.6 mph N/A   Overcast
1:35 AM 44.6 °F 37.4 °F 30.2 °F 57% 29.78 in 10.0 mi NNE 16.1 mph 27.6 mph N/A   Overcast
1:55 AM 44.6 °F 36.1 °F 30.2 °F 57% 29.76 in 10.0 mi NNE 21.9 mph 31.1 mph N/A   Overcast
2:15 AM 44.6 °F 36.6 °F 30.2 °F 57% 29.74 in 10.0 mi North 19.6 mph 32.2 mph N/A   Mostly Cloudy
2:35 AM 44.6 °F 38.4 °F 30.2 °F 57% 29.73 in 10.0 mi North 12.7 mph 27.6 mph N/A   Mostly Cloudy
2:55 AM 44.6 °F 37.8 °F 30.2 °F 57% 29.71 in 10.0 mi North 15.0 mph 27.6 mph N/A   Overcast
3:15 AM 44.6 °F 38.1 °F 30.2 °F 57% 29.70 in 10.0 mi North 13.8 mph 32.2 mph N/A   Overcast
3:35 AM 44.6 °F 37.4 °F 32.0 °F 61% 29.70 in 10.0 mi NNE 16.1 mph 28.8 mph N/A   Overcast
3:55 AM 44.6 °F 38.1 °F 32.0 °F 61% 29.69 in 10.0 mi North 13.8 mph 23.0 mph N/A   Overcast
4:15 AM 44.6 °F 38.1 °F 32.0 °F 61% 29.68 in 10.0 mi NNE 13.8 mph 25.3 mph N/A   Overcast
4:35 AM 44.6 °F 37.4 °F 32.0 °F 61% 29.68 in 10.0 mi NNE 16.1 mph 29.9 mph N/A   Overcast
4:55 AM 44.6 °F 36.4 °F 32.0 °F 61% 29.67 in 10.0 mi North 20.7 mph 29.9 mph N/A   Overcast
5:15 AM 44.6 °F 36.6 °F 32.0 °F 61% 29.67 in 10.0 mi North 19.6 mph 34.5 mph N/A   Overcast
5:35 AM 44.6 °F 37.2 °F 33.8 °F 66% 29.66 in 10.0 mi NNE 17.3 mph 29.9 mph N/A   Overcast
5:55 AM 42.8 °F 35.1 °F 33.8 °F 70% 29.66 in 10.0 mi North 16.1 mph 32.2 mph N/A   Overcast
6:35 AM 42.8 °F 34.8 °F 33.8 °F 70% 29.65 in 10.0 mi North 17.3 mph 26.5 mph N/A   Overcast
6:55 AM 42.8 °F 35.4 °F 33.8 °F 70% 29.64 in 10.0 mi North 15.0 mph 26.5 mph N/A   Overcast
7:15 AM 42.8 °F 35.4 °F 33.8 °F 70% 29.64 in 10.0 mi North 15.0 mph 27.6 mph N/A   Overcast
7:35 AM 42.8 °F 34.5 °F 33.8 °F 70% 29.63 in 10.0 mi North 18.4 mph 31.1 mph N/A   Overcast
7:55 AM 42.8 °F 34.3 °F 33.8 °F 70% 29.62 in 10.0 mi NNW 19.6 mph 31.1 mph N/A   Overcast
8:15 AM 42.8 °F 35.4 °F 33.8 °F 70% 29.61 in 10.0 mi North 15.0 mph 26.5 mph N/A   Overcast
8:35 AM 42.8 °F 35.1 °F 33.8 °F 70% 29.61 in 10.0 mi North 16.1 mph 26.5 mph N/A   Overcast
8:55 AM 42.8 °F 35.1 °F 33.8 °F 70% 29.62 in 10.0 mi North 16.1 mph 35.7 mph N/A   Overcast
9:15 AM 42.8 °F 34.0 °F 33.8 °F 70% 29.62 in 10.0 mi North 20.7 mph 33.4 mph N/A   Overcast
9:35 AM 42.8 °F 34.5 °F 33.8 °F 70% 29.61 in 10.0 mi North 18.4 mph 29.9 mph N/A   Overcast
9:55 AM 42.8 °F 34.5 °F 33.8 °F 70% 29.61 in 10.0 mi North 18.4 mph 28.8 mph N/A   Overcast
10:15 AM 42.8 °F 34.8 °F 33.8 °F 70% 29.61 in 10.0 mi North 17.3 mph 29.9 mph N/A   Overcast
10:35 AM 42.8 °F 34.5 °F 33.8 °F 70% 29.61 in 10.0 mi North 18.4 mph 33.4 mph N/A   Overcast
10:55 AM 42.8 °F 34.5 °F 33.8 °F 70% 29.60 in 10.0 mi North 18.4 mph 32.2 mph N/A   Overcast
11:15 AM 42.8 °F 34.0 °F 33.8 °F 70% 29.61 in 10.0 mi North 20.7 mph 29.9 mph N/A   Overcast
11:35 AM 42.8 °F 35.8 °F 33.8 °F 70% 29.61 in 10.0 mi North 13.8 mph 31.1 mph N/A   Overcast
11:55 AM 42.8 °F 34.8 °F 33.8 °F 70% 29.60 in 10.0 mi North 17.3 mph 29.9 mph N/A   Overcast
12:15 PM 42.8 °F 34.8 °F 33.8 °F 70% 29.60 in 10.0 mi North 17.3 mph 28.8 mph N/A   Overcast
12:55 PM 42.8 °F 34.3 °F 33.8 °F 70% 29.59 in 10.0 mi NNW 19.6 mph 27.6 mph N/A   Overcast
1:15 PM 42.8 °F 34.5 °F 33.8 °F 70% 29.59 in 10.0 mi NNW 18.4 mph 29.9 mph N/A   Overcast
1:35 PM 42.8 °F 34.8 °F 33.8 °F 70% 29.59 in 10.0 mi North 17.3 mph 33.4 mph N/A   Overcast
1:55 PM 42.8 °F 34.8 °F 33.8 °F 70% 29.59 in 10.0 mi North 17.3 mph 31.1 mph N/A   Overcast
2:55 PM 42.8 °F 36.2 °F 32.0 °F 66% 29.60 in 10.0 mi North 12.7 mph 31.1 mph N/A   Overcast
3:15 PM 44.6 °F 36.9 °F 32.0 °F 61% 29.61 in 10.0 mi North 18.4 mph 28.8 mph N/A   Overcast
3:35 PM 44.6 °F 38.8 °F 32.0 °F 61% 29.62 in 10.0 mi North 11.5 mph 28.8 mph N/A   Overcast
3:55 PM 44.6 °F 36.4 °F 32.0 °F 61% 29.62 in 10.0 mi North 20.7 mph 29.9 mph N/A   Overcast
4:15 PM 44.6 °F 37.8 °F 32.0 °F 61% 29.63 in 10.0 mi North 15.0 mph 29.9 mph N/A   Overcast
4:35 PM 44.6 °F 36.6 °F 32.0 °F 61% 29.63 in 10.0 mi North 19.6 mph 26.5 mph N/A   Overcast
4:55 PM 44.6 °F 37.4 °F 32.0 °F 61% 29.65 in 10.0 mi North 16.1 mph 28.8 mph N/A   Overcast
5:15 PM 44.6 °F 37.2 °F 32.0 °F 61% 29.66 in 10.0 mi North 17.3 mph 26.5 mph N/A   Overcast
5:35 PM 44.6 °F 37.4 °F 30.2 °F 57% 29.66 in 10.0 mi NNW 16.1 mph 26.5 mph N/A   Overcast
5:55 PM 44.6 °F 38.4 °F 32.0 °F 61% 29.67 in 10.0 mi North 12.7 mph 28.8 mph N/A   Overcast
6:35 PM 44.6 °F 36.9 °F 32.0 °F 61% 29.68 in 10.0 mi North 18.4 mph 31.1 mph N/A   Overcast
6:56 PM 44.6 °F 37.8 °F 30.2 °F 57% 29.69 in 10.0 mi NNW 15.0 mph 25.3 mph N/A   Overcast
7:15 PM 44.6 °F 38.1 °F 30.2 °F 57% 29.70 in 10.0 mi NNW 13.8 mph 21.9 mph N/A   Mostly Cloudy
7:35 PM 44.6 °F 37.2 °F 30.2 °F 57% 29.71 in 10.0 mi North 17.3 mph 25.3 mph N/A   Mostly Cloudy
7:55 PM 44.6 °F 38.8 °F 30.2 °F 57% 29.72 in 10.0 mi North 11.5 mph 27.6 mph N/A   Scattered Clouds
8:15 PM 44.6 °F 38.4 °F 30.2 °F 57% 29.72 in 10.0 mi NNW 12.7 mph 23.0 mph N/A   Mostly Cloudy
8:55 PM 44.6 °F 40.2 °F 30.2 °F 57% 29.74 in 10.0 mi NNW 8.1 mph 23.0 mph N/A   Overcast
9:15 PM 44.6 °F 38.8 °F 30.2 °F 57% 29.75 in 10.0 mi North 11.5 mph 21.9 mph N/A   Overcast
9:35 PM 44.6 °F 40.2 °F 30.2 °F 57% 29.75 in 10.0 mi North 8.1 mph 23.0 mph N/A   Overcast
9:55 PM 44.6 °F 38.4 °F 32.0 °F 61% 29.76 in 10.0 mi NNW 12.7 mph 20.7 mph N/A   Overcast
10:35 PM 44.6 °F 38.8 °F 30.2 °F 57% 29.78 in 10.0 mi North 11.5 mph 16.1 mph N/A   Overcast
10:55 PM 44.6 °F 39.2 °F 30.2 °F 57% 29.79 in 10.0 mi NNW 10.4 mph 21.9 mph N/A   Overcast
11:15 PM 44.6 °F 39.2 °F 30.2 °F 57% 29.79 in 10.0 mi North 10.4 mph 19.6 mph N/A   Overcast
11:35 PM 42.8 °F 38.6 °F 30.2 °F 61% 29.80 in 10.0 mi North 6.9 mph - N/A   Overcast
11:55 PM 42.8 °F 37.0 °F 30.2 °F 61% 29.80 in 10.0 mi North 10.4 mph 19.6 mph N/A   Overcast